Regional Weather Roundup
Issued by NWS Midland/Odessa, TX

Home | Current Version | Previous Version | Text Only | Print | Product List | Glossary On
Versions: 1 2 3 4 5 6 7 8 9 10 11 12 13 14 15 16 17 18 19 20 21 22 23 24 25 26 27 28 29 30 31 32 33 34 35 36 37 38 39 40 41 42 43 44 45 46 47 48 49 50
000
ASUS44 KMAF 251210
RWRMAF
MIDLAND AREA WEATHER ROUNDUP
NATIONAL WEATHER SERVICE MIDLAND TX
700 AM CDT MON JUL 25 2016

...IN SOUTHWEST TEXAS AND SOUTHEAST NEW MEXICO...

CITY           SKY/WX    TMP DP  RH WIND       PRES   REMARKS
ALPINE         CLEAR     67  56  67 CALM      30.19R
ANDREWS        FAIR      73  57  57 SE3       30.08R
ARTESIA        CLEAR     73  55  53 NW7       30.09S
BIG SPRING     CLEAR     78  63  59 SE7       30.06R
CARLSBAD       CLEAR     75  53  46 W8        30.06R
DRYDEN           N/A     79  70  74 E8        29.99R
FORT STOCKTON  CLEAR     76  66  71 S14       30.03R
GUAD PASS      CLEAR     73  53  49 NE12      30.22R
HOBBS          CLEAR     73  55  53 CALM      30.12R
MARFA          CLEAR     64  55  72 VRB3      30.18R
MIDLAND AIRPK  CLEAR     79  60  52 S6        30.06R
MIDLAND INTL   CLEAR     77  59  53 SE5       30.05R
ODESSA         CLEAR     78  59  51 SE6       30.06R
PECOS          CLEAR     75  58  55 NE7       30.01R
PRESIDIO       CLOUDY    86  60  40 NE15      29.99R THUNDER
SEMINOLE       CLEAR     72  57  60 N5        30.10R
SNYDER           N/A     74  63  67 SE6       30.05R
WINK           CLEAR     78  59  51 SE7       30.02R
$$
...OTHER STATIONS IN TEXAS...

CITY           SKY/WX    TMP DP  RH WIND       PRES   REMARKS
ABILENE        CLEAR     77  66  68 SE6       30.02R
AMARILLO       CLOUDY    69  63  81 N7        30.14R
AUSTIN         MOCLDY    79  76  90 SE3       29.97R
BROWNSVILLE    CLEAR     79  76  90 SE6       29.91R
CORPUS CHRISTI PTCLDY    78  76  93 SE5       29.92R
DALLAS FTW     MOCLDY    80  72  76 SE5       29.97R
DEL RIO        CLEAR     80  70  71 E9        29.93R
EL PASO        MOCLDY    80  53  39 N6        30.08R
HOUSTON INT    CLOUDY    80  76  87 CALM      29.96R
LUBBOCK        PTCLDY    69  60  73 N6        30.10R
SAN ANGELO     CLEAR     74  64  71 E3        30.01R
SAN ANTONIO    MOCLDY    79  74  84 S7        29.98R
WACO           PTCLDY    80  72  76 S5        29.98R
WICHITA FALLS  NOT AVBL
$$
...OTHER LOCATIONS IN NEW MEXICO...

CITY           SKY/WX    TMP DP  RH WIND       PRES   REMARKS
ALAMAGORDO     CLEAR     68  55  64 E3        30.11F
ALBUQUERQUE    MOCLDY    71  56  58 E3        30.25R
CANNON AFB     CLEAR     69  59  72 NE7       30.17S
CLOVIS         CLEAR     66  55  68 N7        30.17S
HOLLOMAN AFB   CLEAR     70  53  54 N7        30.09S
ROSWELL        CLEAR     74  54  49 NW7       30.10S
RUIDOSO          N/A     59  50  72 SW7       30.36S
SANTA FE       MOCLDY    64  51  62 NE8       30.33R
TRUTH OR CONSE MOCLDY    75  52  44 NW6       30.16S
TUCUMCARI      PTCLDY    68  59  73 N7        30.18R
$$




USA.gov is the U.S. government's official web portal to all federal, state and local government web resources and services.